This is the latest recevied weather packets stored in our database for station/object KA3ZXO. If no packets are shown the sender has not sent any weather packets the latest 10 day(s).
| Time | Temp. | Humidity | Pressure | Rain* | Wind** | Luminosity | Snow |
|---|---|---|---|---|---|---|---|
| 1777252170 | 10.56° C | 85% | 1021.7 hPa | 0 mm | - | 0 W/m² | - |
| 1777251570 | 10.56° C | 85% | 1021.7 hPa | 0 mm | - | 0 W/m² | - |
| 1777250968 | 10.56° C | 85% | 1021.4 hPa | 0 mm | - | 0 W/m² | - |
| 1777250367 | 10.56° C | 84% | 1021.3 hPa | 0 mm | - | 0 W/m² | - |
| 1777249765 | 10.56° C | 83% | 1021.1 hPa | 0 mm | - | 0 W/m² | - |
| 1777249163 | 10.56° C | 84% | 1021.1 hPa | 0 mm | - | 0 W/m² | - |
| 1777248563 | 10.56° C | 85% | 1020.9 hPa | 0 mm | - | 0 W/m² | - |
| 1777247960 | 10.56° C | 84% | 1020.7 hPa | 0 mm | - | 1 W/m² | - |
| 1777247359 | 10.56° C | 85% | 1020.7 hPa | 0 mm | - | 2 W/m² | - |
| 1777246758 | 10.56° C | 85% | 1020.7 hPa | 0 mm | - | 4 W/m² | - |
| 1777246157 | 11.11° C | 84% | 1020.6 hPa | 0 mm | - | 6 W/m² | - |
| 1777245552 | 11.11° C | 84% | 1020.5 hPa | 0 mm | - | 10 W/m² | - |
| 1777244950 | 11.11° C | 82% | 1020.6 hPa | 0 mm | - | 8 W/m² | - |
| 1777244348 | 11.11° C | 82% | 1020.3 hPa | 0 mm | - | 9 W/m² | - |
| 1777243743 | 11.11° C | 83% | 1020.4 hPa | 0 mm | - | 19 W/m² | - |
| 1777243141 | 11.11° C | 83% | 1020.2 hPa | 0 mm | - | 19 W/m² | - |
| 1777242541 | 11.11° C | 83% | 1020.2 hPa | 0 mm | - | 9 W/m² | - |
| 1777241941 | 11.11° C | 82% | 1020.1 hPa | 0 mm | - | 16 W/m² | - |
| 1777241340 | 11.11° C | 83% | 1019.9 hPa | 0 mm | - | 32 W/m² | - |
| 1777240735 | 10.56° C | 83% | 1019.8 hPa | 0 mm | - | 22 W/m² | - |
| 1777240130 | 10.56° C | 82% | 1019.9 hPa | 0 mm | - | 21 W/m² | - |
| 1777239530 | 10.56° C | 82% | 1019.8 hPa | 0 mm | - | 24 W/m² | - |
| 1777238924 | 10.56° C | 81% | 1019.6 hPa | 0 mm | - | 18 W/m² | - |
| 1777238324 | 11.11° C | 81% | 1019.7 hPa | 0 mm | - | 42 W/m² | - |
| 1777237723 | 10.56° C | 82% | 1019.6 hPa | 0 mm | - | 30 W/m² | - |
* Rain latest hour (hover to see other rain measurements)
** Current wind speed in m/s (hover to see current wind gust speed)